Location: Unspecified
(0.0000°N, 0.0000°E)
Time: 13:38:56
(UTC+00:00)

N. Korean satellite - Pass Details

Date: 28 March 2020
Orbit: 454 x 507 km, 97.2° (Epoch: 01 April)

Event Time Altitude Azimuth Distance (km) Brightness Sun altitude
Rises 05:32:08 0° 3° (N) 2,451 10.2 -8.2°
Reaches altitude 10° 05:34:11 10° 358° (N) 1,581 9.2 -7.7°
Maximum altitude 05:37:28 51° 281° (W) 574 6.6 -6.9°
Drops below altitude 10° 05:40:48 10° 204° (SSW) 1,594 8.9 -6.0°
Sets 05:42:53 0° 199° (SSW) 2,474 9.9 -5.5°
